Location: Newark
(10.9667°N, 4.8167°W)
Time: 15:20:08
(UTC+00:00)

N. Korean satellite - Visible Passes

Search period start: 06 December 2019 00:00
Search period end: 16 December 2019 00:00
Orbit: 456 x 506 km, 97.2° (Epoch: 06 December)

Date Brightness Start Highest point End Pass type
(mag) Time Alt. Az. Time Alt. Az. Time Alt. Az.
06 Dec 9.3 05:20:41 10° NE 05:23:23 21° E 05:26:05 10° SSE visible
07 Dec 9.7 18:21:14 10° SSW 18:24:04 21° W 18:26:54 10° NW visible
09 Dec 7.9 05:37:09 10° NNE 05:40:26 42° E 05:43:41 10° S visible
10 Dec 9.7 05:12:51 10° ENE 05:15:01 16° E 05:17:10 10° SE visible
10 Dec 10.3 18:39:55 10° WSW 18:41:08 11° W 18:42:21 10° W visible
12 Dec 6.4 05:54:01 10° N 05:57:27 89° WSW 06:00:52 10° S visible
13 Dec 8.6 05:29:00 10° NE 05:32:03 30° E 05:35:05 10° SSE visible
14 Dec 10.0 05:05:22 10° ENE 05:06:36 12° E 05:07:51 10° ESE visible
14 Dec 9.9 18:30:34 10° SW 18:32:47 15° W 18:34:59 10° WNW visible
